sat.trackr.live / text

‹ back to catalog

STARLINK-36091

NORAD 66848 · 2025-281A

PAYLOAD ACTIVE UNKNOWN

§ Identity

Operator
Country
US
Launch date
2025-12-02
Launch site
AFETR
Launch vehicle
Mass (kg)
RCS (m²)

Purposes: comms

External: N2YO · Heavens-Above · Gunter

§ Orbital elements

Epoch: 2026-09-19T05:55:07.206816Z

Period
94.27 min
Inclination
43.0013°
Eccentricity
0.0001487
Mean motion
15.27587135 rev/d
Perigee alt
482.0 km
Apogee alt
484.0 km
Semi-major
6,861.2 km
B*
2.9893e-4
RAAN
330.7079°
Arg perigee
288.9566°
Mean anomaly
71.1124°
Rev number
4,446

§ Raw data

STARLINK-360911 66848U 25281A   26262.24661119  .00007974  00000+0  29893-3 0  99982 66848  43.0013 330.7079 0001487 288.9566  71.1124 15.27587135 44466

JSON: /api/v1/satellites/66848 · /tle

For live sub-satellite position, see the globe view (requires WebGL).

§ Visibility from observer

Set your observer location to see the next 7 days of passes ≥ 10°. The values pass through the URL so the page stays shareable.

No JS? Fill the form by hand. The geolocation button needs JavaScript.